This demonstration page uses our WeatherBlox Daily Observations layout. Learn more.

Left ArrowRight Arrow

34.16533, -84.80231

Hourly Observations for September 3, 2017

Temp ( °F °C ) Dew Point ( °F °C ) Humidity (%) Winds ( mph kmh ) Pressure ( in mb ) Visibility ( mi km ) Precip ( " mm )
12:53 am 00:53 Clear 60 15.6 60 15.6 100 100 Calm 30.08 1019 9 14 0.00 0.00
1:53 am 01:53 Clear 60 15.6 60 15.6 100 100 Calm 30.07 1018 8 13 0.00 0.00
2:53 am 02:53 Clear 58 14.4 58 14.4 100 100 Calm 30.07 1018 7 11 0.00 0.00
3:53 am 03:53 Clear 56 13.3 56 13.3 100 100 Calm 30.07 1018 7 11 0.00 0.00
4:50 am 04:50 Mostly Clear 55 13 55 13 100 100 Calm 30.12 1020 8 13 0.00 0.00
4:53 am 04:53 Mostly Clear 56 13.3 56 13.3 100 100 Calm 30.08 1019 8 13 0.00 0.00
5:53 am 05:53 Clear 55 12.8 55 12.8 100 100 Calm 30.09 1019 7 11 0.00 0.00
6:53 am 06:53 Mostly Clear 54 12.2 54 12.2 100 100 Calm 30.11 1020 10 16 0.00 0.00
7:45 am 07:45 Mostly Cloudy 55 12.8 55 12.8 100 100 Calm 30.15 1021 8 13 0.00 0.00
7:53 am 07:53 Mostly Sunny 55 12.8 55 12.8 100 100 Calm 30.12 1020 8 13 0.00 0.00
8:53 am 08:53 Sunny 62 16.7 61 16.1 96 96 Calm 30.13 1020 9 14 0.00 0.00
9:53 am 09:53 Sunny 68 20 63 17.2 84 84 Calm 30.14 1021 10 16 0.00 0.00
10:53 am 10:53 Sunny 71 21.7 63 17.2 76 76 VRB 5 7 30.14 1021 10 16 0.00 0.00
11:53 am 11:53 Sunny 77 25 63 17.2 62 62 VRB 3 6 30.14 1021 10 16 0.00 0.00
12:53 pm 12:53 Mostly Sunny 79 26.1 60 15.6 52 52 VRB 6 9 30.13 1020 10 16 0.00 0.00
1:53 pm 13:53 Mostly Sunny 81 27.2 60 15.6 49 49 Calm 30.11 1020 10 16 0.00 0.00
2:53 pm 14:53 Sunny 82 27.8 59 15 46 46 VRB 3 6 30.10 1019 10 16 0.00 0.00
3:53 pm 15:53 Sunny 83 28.3 58 14.4 43 43 VRB 6 9 30.07 1018 10 16 0.00 0.00
4:53 pm 16:53 Sunny 84 28.9 58 14.4 41 41 Calm 30.06 1018 10 16 0.00 0.00
5:53 pm 17:53 Sunny 83 28.3 58 14.4 43 43 Calm 30.06 1018 10 16 0.00 0.00
6:53 pm 18:53 Sunny 79 26.1 59 15 50 50 NNW 5 7 30.07 1018 10 16 0.00 0.00
7:53 pm 19:53 Sunny 70 21.1 66 18.9 87 87 Calm 30.07 1018 10 16 0.00 0.00
8:53 pm 20:53 Clear 65 18.3 63 17.2 93 93 Calm 30.07 1018 10 16 0.00 0.00
9:53 pm 21:53 Clear 63 17.2 62 16.7 97 97 Calm 30.08 1019 10 16 0.00 0.00
10:53 pm 22:53 Clear 62 16.7 61 16.1 96 96 Calm 30.10 1019 10 16 0.00 0.00
11:53 pm 23:53 Clear 60 15.6 60 15.6 100 100 Calm 30.09 1019 10 16 0.00 0.00

Powered by AerisWeather